Regional Weather Roundup
Issued by NWS

Home | Current Version | Previous Version | Graphics & Text | Print | Product List | Glossary On
Versions: 1 2 3 4 5 6 7 8 9 10 11 12 13 14 15 16 17 18 19 20 21 22 23 24 25 26 27 28 29 30 31 32 33 34 35 36 37 38 39 40 41 42 43 44 45 46 47 48 49 50
000
ASUS43 KMKX 271728
RWRWI

WISCONSIN REGIONAL WEATHER ROUNDUP
NATIONAL WEATHER SERVICE MILWAUKEE/SULLIVAN WI
1200 PM CDT WED MAY 27 2015

NOTE: "FAIR" INDICATES FEW OR NO CLOUDS BELOW 12,000 FEET WITH NO
SIGNIFICANT WEATHER AND/OR OBSTRUCTIONS TO VISIBILITY.

WIZ001-002-006>008-014>016-023>028-271800-
NORTHWEST WISCONSIN

CITY           SKY/WX    TMP DP  RH WIND       PRES   REMARKS
SUPERIOR ARPT  SUNNY     76  58  53 SW7G16    29.86R
ASHLAND        MOSUNNY   74  59  59 W12       29.85S
HAYWARD        MOSUNNY   70  56  61 SW12      29.91R
SIREN          SUNNY     73  58  59 SW9       29.91S
CUMBERLAND     MOSUNNY   70  55  60 SW10      29.93R
RICE LAKE      MOSUNNY   72  55  54 W9        29.94S
CHETEK         MOSUNNY   71  58  64 SW9       29.93S
LADYSMITH      SUNNY     71  58  65 SW10G16   29.94R
EAU CLAIRE     SUNNY     71  57  61 SW10G20   29.94R
MENOMONIE      SUNNY     72  57  59 SW14      29.95R
NEW RICHMOND   SUNNY     72  58  62 SW13      29.94R
OSCEOLA        SUNNY     73  59  61 SW9       29.96R
$$

WIZ003>005-009-010-017-018-271800-
NORTH CENTRAL WISCONSIN

CITY           SKY/WX    TMP DP  RH WIND       PRES   REMARKS
MANITOWISH WTR MOSUNNY   68  58  71 SW9G16    29.89R
ARBOR VITAE    MOSUNNY   70  59  69 W6        29.89S
WOODRUFF       MOSUNNY   70  59  69 W6        29.89S
RHINELANDER    MOSUNNY   67  57  70 W18       29.91R
EAGLE RIVER    MOSUNNY   67  55  65 W14       29.88S
LAND O LAKES   SUNNY     70  57  63 NW6       29.89R
PHILLIPS       SUNNY     66  58  74 SW9       29.91R
TOMAHAWK       PTSUNNY   65  56  73 W8        29.93R
MEDFORD        MOSUNNY   65  59  80 W6        29.94R
MERRILL        PTSUNNY   64  60  87 SW10      29.94S
$$

WIZ029-030-035-036-043>047-271800-
CENTRAL WISCONSIN

CITY           SKY/WX    TMP DP  RH WIND       PRES   REMARKS
WAUSAU         CLOUDY    63  58  83 SW7       29.94R
MOSINEE        PTSUNNY   61  61 100 CALM        N/A
MARSHFIELD     MOSUNNY   68  58  70 SW13      29.96R
STEVENS POINT  RAIN      60  56  88 W5        29.97R
WAUPACA        CLOUDY    66  58  76 W3        29.95S
WAUTOMA        PTSUNNY   66  57  72 CALM      29.97R
WISC RAPIDS    PTSUNNY   66  57  72 W7        29.97R
CAMP DOUGLAS   PTSUNNY   72  55  56 VRB5      29.98R
$$

WIZ011>013-019>022-031-037>040-048>050-271800-
NORTHEAST WISCONSIN

CITY           SKY/WX    TMP DP  RH WIND       PRES   REMARKS
ANTIGO         CLOUDY    60  59  96 W10       29.92R
SHAWANO        LGT RAIN  64  59  85 W9        29.92S
OCONTO         CLOUDY    62  61  96 SW8       29.90R
STURGEON BAY   PTSUNNY   61  55  82 W10       29.93R
GREEN BAY      LGT RAIN  63  58  83 W12       29.93R
MANITOWOC      LGT RAIN  62  59  90 NW13      29.94R
APPLETON       LGT RAIN  63  57  82 W6        29.96R
CLINTONVILLE   CLOUDY    63  59  88 W8        29.93R
OSHKOSH        CLOUDY    63  56  78 W8        29.96R
$$

WIZ032>034-041-042-053>061-271800-
SOUTHWEST WISCONSIN

CITY           SKY/WX    TMP DP  RH WIND       PRES   REMARKS
LA CROSSE      SUNNY     72  59  63 S9        29.97R
SPARTA         MOSUNNY   71  54  55 SW6       29.98S
VIROQUA        SUNNY     70  57  63 CALM      30.01R
BOSCOBEL       MOSUNNY   73  58  59 N5        30.00R
PRAIRIE DU CHI SUNNY     71  56  57 NW6       30.00R
PLATTEVILLE    MOSUNNY   69  60  75 W10       30.02R
$$

WIZ056-057-062-063-064-067-068-271800-
SOUTH CENTRAL WISCONSIN

CITY           SKY/WX    TMP DP  RH WIND       PRES   REMARKS
REEDSBURG      PTSUNNY   67  55  64 N6        29.99R
BARABOO/DELLS  MOSUNNY   67  53  59 NE8       29.99R
LONE ROCK      MOSUNNY   70  56  61 W6        30.00R
MINERAL POINT  PTSUNNY   68  57  68 NW7       30.02R
MADISON        PTSUNNY   66  56  70 VRB7      29.98R
MIDDLETON      PTSUNNY   68  55  63 NW10G17   30.00R
WATERTOWN      CLOUDY    65  60  84 NW17G24   29.96R
MONROE         PTSUNNY   64  55  72 NW9G18    30.00R
JANESVILLE     RAIN      64  63  94 NW12      29.98R
$$

WIZ051-052-058>065-066-070>072-271800-
SOUTHEAST WISCONSIN

CITY           SKY/WX    TMP DP  RH WIND       PRES   REMARKS
MILWAUKEE      LGT RAIN  64  57  78 NW15      29.95R
WAUKESHA       CLOUDY    63  57  82 W18       29.97R
MILWAUKEE/TIMM RAIN      64  55  72 W20       29.95R
RACINE         MOSUNNY   70  59  68 W12G18    29.95R
BURLINGTON     LGT RAIN  62  57  84 W14G20    29.97R
KENOSHA        PTSUNNY   70  60  70 W18G25    29.95R
FOND DU LAC    CLOUDY    62  53  72 N13G23    29.98R
SHEBOYGAN      CLOUDY    62  56  80 NW13      29.94R
WEST BEND      CLOUDY    63  55  77 W13G18    29.95R
JUNEAU         CLOUDY    62  56  81 N14       29.99R
$$

LSZ147-162-271800-
LAKE SUPERIOR

STATION/POSITION TIME  TEMP    WIND        PRES    WAVE
                       AIR SEA DIR/SP/G            HT/PER
                 (UTC) (F)     (DEG/KT/KT) (MB)    (FT/S)
W MID LAKE BUOY  1650   41 37  220/ 10/ 10   N/A     2/ 3
DEVILS ISLAND    1700   54     220/ 10/ 12   N/A
PORT WING        1600   65     270/  9/ 11   N/A
SAXON HARBOR     1600   69     210/  9/ 14   N/A
$$

LMZ867-665-643>646-271800-
LAKE MICHIGAN

STATION/POSITION TIME  TEMP    WIND        PRES    WAVE
                       AIR SEA DIR/SP/G            HT/PER
                 (UTC) (F)     (DEG/KT/KT) (MB)    (FT/S)
CHAMBERS ISLAND  1600   58     220/  5/  9   N/A
N MID LAKE BUOY  1650   45 36  240/ 12/ 12   N/A     3/ 6
NORTHPORT PIER   1600   57     260/  5/ 12   N/A
SISTER BAY       1633   58     250/ 10/ 10   N/A
ALGOMA LAKESHORE 1638          320/  9/ 13   N/A
KEWAUNEE LAKESHO 1600   60     290/  7/ 13   N/A
SHEBOYGAN LAKESH 1700   62     290/ 15/ 19   N/A
PORT WASHINGTON  1640   65     280/  7/ 14   N/A
ATWATER BUOY     1700   58 47  280/ 12/ 14   N/A
MILWAUKEE LAKESH 1700   66     300/ 13/ 20   N/A
S MID LAKE BUOY  1650   46 38  240/  8/ 10   N/A     1/ 4
KENOSHA   LAKESH 1700   69     240/ 13/ 19   N/A
$$

TC  - TEMPERATURE IN CELSIUS
VSB - VISIBILITY IN STATUTE MILES
WCI - WIND CHILL INDEX
HX  - HEAT INDEX




USA.gov is the U.S. government's official web portal to all federal, state and local government web resources and services.